STARLINK-31823, 59794

Orbit data source: Space-Track

STARLINK-31823, 59794 is a payload satellite owned by SpaceX/Seattle (US) in LEO that was launched on Sat, 18 May 2024 UTC via an FALCON 9 launch vehicle from the Air Force Eastern Test Range (AFETR). Payload-class satellites include a variety of spacecraft equipped with specific instruments for various scientific and technological missions. These include communications satellites like Starlink; space stations such as the ISS; scientific satellites like the Hubble; Earth observation satellites from companies like Planet Labs, Umbra, and HawkEye 360; GPS; miniature CubeSats for education and research; and military/defense satellites.

Loading next visibility...
Identifier
59794, 2024-093N
Orbit
LEO
Country
Flag of USUS
Related business
Manufacturer
SpaceX/Seattle
Mission
Operational Commercial Communications
Bus & Motor
STARLINK V2M, Unknown motor
Mass
730 kg wet, ~700 kg dry
Launch date (UTC)
2024-05-18 (1 year ago)
Launch vehicle
FALCON 9
Launch site
Air Force Eastern Test Range (AFETR)
Object type
Payload
Rocket body
Debris
Shape & HBR
Box + 2 Pan, 17.7 m
Radar Cross Section
33.884 m², Large (>1 m²)

Expand to show TLE details & history
Last TLE update: 4 hours ago

TLE from 4 hours ago
0 STARLINK-31823
1 59794U 24093N   25300.15546205 -.00000567  00000-0 -11097-4 0  9992
2 59794  43.0040 242.9801 0000892 287.8214  72.2540 15.27578765 82276
Epoch: 2025-10-27T03:43Z
TLE epoch observation values (Epoch: 2025-10-27T03:43:51.921Z)
Latitude
-0.00003°
Longitude
151.25237°
Altitude
482.642 km
Speed
7.626 km/s
True Right ascension
16h 11m 55s
True Declination
0° 00' 00"
Sunlit
Object was in daylight at epoch
Visualization orbit readout
Latitude
Unknown
Longitude
Unknown
Altitude
Unknown
Speed
Unknown
Apparent Right ascension
Unknown
Apparent Declination
Unknown
Sunlit
N/A
Visualization observer readout
Local Sidereal Time
03:10:41
Azimuth
Unknown
Elevation
Unknown
Doppler factor
Unknown
Orbital elements
Apogee altitude
485.609 km
Perigee altitude
484.385 km
Semi-major axis
6,863.134 km
Eccentricity
0.00009
Inclination
43.004°
RAAN
242.9801°
Arg. of periapsis
287.8214°
True anomaly
72.26374°
Mean anomaly
72.254°
Eccentric anomaly
72.25887°
Mean motion
3.81733 °/min
Orbital period
94.31 mins
BSTAR
-0.000011097
Loading maneuver chart data...
Computing Atmospheric mass density...
Loading historical data...
Loading historical data...
Loading historical data...
Loading historical data...
Loading historical data...
Loading historical data...
Loading historical data...

Documentation

Showing up to 5 results
|